Temp
-11 -11 -10 -10 -10 -10 -10 -10 -10 -10 -10 -10 -10 -10 -10 -10 -10 -10 -9 -10 -10 -10 -10 -10 -10 -10 -10 -10 -10 -10 -8 -8 -8 -8 -8 -10 -9 -10 -11 -10 -10 -9 -10 -9 -9
-11 -11 -11 -11 -11 -11 -11 -10 -10 -10 -10 -10 -10 -10 -10 -10 -10 -10 -11 -11 -10 -10 -10 -10 -10 -10 -10 -10 -11 -11 -9 -9 -9 -9 -9 -9 -10 -10 -11 -10 -9 -10 -10 -10 -10
-11 -11 -10 -10 -10 -11 -11 -10 -10 -10 -10 -10 -10 -10 -9 -9 -10 -10 -10 -10 -10 -10 -11 -11 -11 -11 -11 -11 -11 -10 -8 -9 -9 -10 -10 -10 -10 -11 -10 -9 -10 -10 -10 -9 -10
-11 -11 -11 -11 -11 -11 -11 -11 -11 -11 -11 -11 -10 -10 -10 -9 -9 -9 -9 -10 -10 -10 -10 -10 -10 -11 -11 -11 -11 -11 -10 -10 -10 -11 -11 -10 -10 -10 -11 -10 -10 -9 -9 -10 -10
-11 -11 -11 -11 -11 -11 -11 -11 -11 -11 -11 -11 -11 -11 -11 -10 -9 -10 -9 -9 -10 -10 -10 -10 -10 -11 -11 -11 -12 -11 -10 -11 -11 -12 -11 -11 -11 -10 -10 -10 -10 -10 -10 -10 -10
-11 -11 -11 -11 -11 -11 -11 -11 -11 -11 -11 -11 -11 -11 -11 -10 -11 -11 -10 -10 -9 -9 -10 -10 -10 -11 -11 -12 -12 -11 -12 -11 -12 -11 -11 -11 -11 -11 -10 -10 -10 -10 -10 -10 -10
-12 -11 -11 -11 -11 -11 -11 -11 -11 -11 -11 -11 -11 -11 -10 -10 -11 -11 -11 -10 -10 -10 -10 -11 -11 -11 -11 -11 -11 -11 -12 -11 -11 -10 -10 -12 -10 -9 -10 -10 -9 -10 -10 -9 -10
-12 -12 -12 -12 -12 -12 -12 -12 -11 -11 -11 -11 -11 -11 -10 -11 -10 -11 -11 -11 -11 -11 -11 -10 -11 -11 -11 -11 -11 -11 -12 -10 -8 -9 -9 -12 -7 -9 -10 -10 -10 -10 -10 -10 -9
-12 -12 -12 -12 -12 -12 -12 -12 -11 -11 -11 -11 -11 -11 -11 -11 -11 -11 -11 -10 -11 -11 -11 -11 -11 -11 -12 -11 -11 -10 -10 -9 -8 -9 -10 -13 -8 -10 -10 -10 -10 -10 -10 -9 -9
-12 -12 -12 -11 -11 -11 -11 -11 -11 -11 -11 -11 -11 -11 -11 -11 -11 -11 -11 -11 -11 -11 -11 -11 -11 -11 -11 -11 -9 -10 -10 -9 -8 -10 -11 -12 -11 -11 -11 -10 -10 -10 -9 -9 -9
-12 -12 -11 -11 -11 -11 -10 -11 -11 -10 -10 -11 -11 -11 -11 -11 -11 -11 -11 -11 -11 -10 -11 -11 -11 -10 -10 -11 -10 -11 -10 -10 -10 -11 -12 -11 -11 -12 -9 -10 -10 -10 -9 -10 -10
-12 -11 -11 -12 -11 -11 -13 -15 -17 -16 -12 -16 -12 -12 -12 -14 -11 -11 -11 -11 -11 -11 -11 -11 -10 -10 -11 -11 -11 -11 -11 -9 -10 -12 -12 -10 -11 -12 -9 -9 -9 -9 -9 -10 -10
-12 -12 -13 -14 -16 -18 -21 -22 -23 -22 -22 -21 -20 -17 -17 -16 -14 -13 -13 -12 -12 -12 -12 -11 -10 -10 -11 -11 -11 -11 -10 -10 -10 -12 -11 -11 -12 -11 -10 -9 -9 -9 -10 -10 -10
-13 -14 -16 -17 -19 -22 -23 -24 -25 -24 -23 -23 -23 -22 -20 -19 -16 -17 -16 -15 -14 -14 -14 -11 -11 -10 -10 -10 -11 -10 -11 -11 -11 -12 -11 -12 -11 -9 -9 -9 -9 -10 -10 -9 -9
-15 -16 -17 -19 -21 -23 -23 -24 -25 -25 -23 -22 -22 -23 -23 -22 -21 -20 -18 -18 -16 -16 -15 -11 -12 -12 -11 -10 -12 -9 -11 -11 -12 -12 -12 -11 -11 -8 -10 -9 -9 -10 -9 -9 -9
-17 -17 -19 -20 -22 -23 -23 -24 -24 -24 -24 -23 -23 -23 -23 -22 -22 -22 -22 -21 -20 -20 -15 -13 -14 -13 -12 -12 -11 -11 -12 -12 -13 -12 -12 -9 -10 -7 -9 -9 -10 -10 -10 -9 -9
-18 -18 -19 -21 -22 -23 -23 -23 -24 -24 -24 -24 -24 -25 -24 -23 -23 -23 -23 -22 -22 -22 -18 -16 -16 -13 -13 -12 -12 -11 -12 -12 -12 -13 -8 -10 -10 -8 -9 -10 -10 -10 -10 -9 -9
-18 -19 -20 -21 -22 -23 -24 -23 -24 -24 -25 -25 -24 -24 -24 -23 -23 -23 -23 -23 -23 -23 -21 -20 -18 -15 -14 -13 -12 -12 -13 -12 -11 -10 -8 -9 -10 -8 -10 -10 -9 -10 -10 -9 -10
-19 -20 -20 -21 -22 -23 -24 -24 -24 -25 -24 -24 -25 -24 -23 -24 -22 -23 -23 -24 -23 -23 -22 -22 -17 -18 -16 -15 -16 -13 -13 -10 -12 -13 -11 -10 -11 -10 -10 -10 -10 -9 -10 -10 -10
-19 -20 -20 -21 -22 -23 -24 -24 -24 -25 -25 -25 -25 -24 -23 -24 -24 -23 -23 -23 -23 -23 -23 -22 -20 -20 -18 -15 -13 -14 -13 -15 -14 -13 -11 -10 -11 -11 -11 -10 -9 -10 -10 -11 -10
-19 -19 -20 -21 -22 -23 -23 -24 -24 -25 -25 -25 -26 -26 -24 -25 -24 -24 -24 -23 -23 -23 -23 -22 -21 -20 -20 -17 -15 -14 -15 -14 -14 -13 -11 -11 -11 -12 -12 -12 -10 -10 -10 -10 -11
-19 -20 -20 -21 -22 -23 -24 -24 -24 -24 -25 -25 -25 -25 -24 -24 -24 -24 -24 -23 -23 -23 -23 -23 -22 -20 -21 -20 -17 -15 -15 -15 -14 -12 -13 -12 -11 -12 -12 -12 -12 -11 -11 -10 -11
-19 -20 -20 -21 -22 -23 -24 -24 -24 -25 -25 -25 -25 -25 -24 -24 -24 -24 -24 -24 -23 -23 -23 -23 -22 -21 -21 -20 -20 -17 -15 -15 -15 -15 -13 -13 -12 -12 -13 -12 -12 -11 -10 -11 -11
-19 -20 -21 -22 -22 -23 -23 -24 -24 -24 -25 -25 -25 -24 -24 -24 -24 -24 -23 -24 -23 -23 -23 -23 -22 -22 -21 -20 -20 -18 -17 -17 -16 -15 -13 -12 -13 -12 -13 -12 -12 -11 -11 -12 -12
-19 -20 -20 -21 -21 -22 -23 -24 -24 -24 -24 -24 -25 -24 -24 -24 -24 -24 -24 -24 -24 -23 -23 -23 -23 -22 -21 -20 -20 -19 -17 -17 -15 -14 -12 -12 -13 -12 -13 -11 -11 -11 -11 -12 -11
-19 -19 -20 -21 -21 -22 -22 -23 -24 -24 -24 -24 -24 -24 -24 -24 -24 -24 -24 -23 -23 -23 -22 -22 -22 -22 -22 -20 -18 -18 -18 -16 -13 -11 -11 -13 -14 -13 -11 -13 -12 -11 -11 -11 -11
-19 -20 -20 -20 -21 -21 -22 -23 -24 -23 -24 -24 -24 -23 -24 -24 -23 -24 -23 -23 -23 -23 -22 -21 -21 -22 -20 -20 -18 -18 -17 -16 -14 -12 -12 -13 -13 -12 -12 -11 -12 -11 -11 -12 -11
Height
5788 5789 5789 5789 5790 5791 5792 5791 5793 5793 5795 5797 5798 5800 5803 5806 5810 5813 5819 5825 5823 5826 5829 5832 5835 5838 5838 5840 5842 5844 5841 5847 5855 5861 5866 5864 5862 5863 5867 5864 5867 5869 5866 5865 5871
5784 5784 5783 5783 5782 5782 5782 5783 5784 5784 5785 5786 5789 5790 5793 5797 5801 5804 5811 5813 5813 5815 5816 5822 5825 5825 5826 5830 5830 5831 5835 5842 5853 5851 5853 5857 5854 5860 5859 5854 5860 5860 5859 5860 5860
5777 5776 5776 5775 5775 5775 5775 5775 5774 5774 5774 5775 5776 5778 5782 5786 5790 5794 5795 5800 5803 5803 5808 5809 5812 5813 5815 5818 5823 5824 5825 5835 5839 5841 5843 5846 5850 5851 5852 5852 5854 5851 5851 5855 5853
5771 5770 5768 5767 5766 5765 5764 5764 5764 5763 5764 5765 5765 5766 5768 5772 5777 5778 5783 5785 5789 5792 5795 5799 5800 5801 5804 5809 5813 5813 5820 5822 5829 5831 5834 5835 5839 5842 5843 5843 5845 5847 5848 5845 5845
5765 5763 5761 5759 5757 5755 5753 5752 5751 5751 5751 5751 5752 5753 5756 5760 5768 5763 5766 5770 5774 5777 5782 5784 5786 5788 5791 5796 5800 5804 5812 5812 5817 5820 5824 5827 5827 5830 5832 5837 5839 5842 5843 5841 5839
5758 5756 5753 5751 5748 5746 5743 5741 5739 5738 5738 5738 5739 5740 5744 5749 5750 5750 5751 5756 5762 5766 5770 5772 5776 5777 5779 5781 5784 5798 5797 5800 5804 5807 5812 5815 5816 5820 5826 5832 5831 5833 5833 5831 5830
5751 5748 5745 5742 5738 5735 5732 5729 5726 5725 5724 5724 5725 5727 5732 5737 5732 5737 5738 5743 5748 5752 5755 5759 5761 5761 5768 5770 5777 5782 5782 5787 5792 5798 5799 5805 5804 5813 5819 5819 5821 5820 5819 5820 5820
5743 5739 5735 5732 5728 5723 5719 5715 5711 5709 5708 5707 5708 5711 5718 5714 5718 5720 5724 5728 5733 5738 5742 5745 5748 5753 5755 5760 5765 5769 5769 5772 5789 5791 5796 5800 5794 5806 5809 5811 5807 5808 5808 5809 5810
5736 5732 5727 5721 5716 5711 5705 5698 5693 5692 5691 5690 5690 5693 5700 5700 5702 5705 5709 5714 5717 5722 5726 5730 5733 5739 5744 5749 5751 5759 5760 5768 5781 5787 5787 5788 5782 5792 5800 5799 5797 5799 5800 5800 5802
5728 5722 5715 5709 5702 5696 5688 5679 5674 5671 5668 5669 5671 5677 5676 5678 5683 5687 5693 5697 5701 5706 5710 5715 5717 5724 5735 5738 5743 5754 5759 5765 5768 5776 5776 5778 5774 5782 5788 5789 5788 5790 5789 5791 5788
5717 5710 5702 5693 5684 5675 5666 5655 5647 5642 5644 5646 5647 5652 5655 5654 5661 5668 5673 5679 5684 5688 5692 5695 5700 5717 5733 5736 5743 5745 5748 5751 5755 5761 5767 5768 5768 5770 5778 5777 5778 5780 5783 5780 5779
5707 5698 5690 5680 5668 5653 5638 5623 5611 5605 5616 5616 5616 5623 5630 5627 5639 5648 5654 5660 5664 5669 5671 5677 5695 5717 5718 5722 5723 5730 5737 5742 5747 5752 5758 5762 5756 5761 5767 5773 5774 5773 5773 5771 5773
5697 5687 5677 5664 5648 5632 5617 5605 5593 5588 5585 5595 5594 5596 5604 5608 5619 5627 5630 5638 5645 5649 5653 5665 5692 5696 5697 5704 5710 5721 5726 5735 5738 5743 5749 5750 5744 5752 5762 5766 5765 5766 5763 5763 5767
5687 5678 5666 5652 5640 5624 5608 5593 5581 5575 5580 5583 5580 5582 5586 5592 5603 5607 5612 5619 5626 5634 5638 5655 5674 5677 5682 5691 5699 5708 5720 5725 5728 5733 5734 5745 5734 5745 5755 5755 5759 5757 5762 5758 5758
5678 5669 5658 5644 5632 5619 5605 5592 5581 5574 5577 5580 5582 5580 5582 5586 5591 5591 5599 5604 5610 5616 5626 5655 5656 5658 5666 5680 5681 5701 5706 5713 5717 5723 5727 5732 5733 5743 5745 5749 5749 5754 5752 5749 5747
5671 5662 5650 5639 5629 5618 5606 5597 5588 5585 5582 5580 5578 5578 5582 5583 5586 5588 5592 5596 5598 5602 5614 5635 5631 5638 5657 5663 5672 5686 5693 5701 5708 5713 5711 5727 5728 5733 5741 5741 5746 5745 5743 5742 5739
5666 5655 5644 5633 5624 5616 5607 5600 5592 5586 5585 5581 5579 5577 5577 5578 5579 5585 5587 5591 5593 5596 5604 5609 5615 5629 5640 5651 5659 5670 5681 5688 5695 5698 5710 5724 5718 5725 5738 5735 5738 5739 5738 5734 5735
5662 5650 5640 5629 5622 5613 5605 5599 5590 5586 5583 5581 5578 5577 5574 5576 5579 5581 5584 5585 5587 5589 5592 5594 5604 5620 5629 5638 5648 5658 5666 5674 5684 5694 5707 5715 5706 5726 5728 5729 5731 5732 5733 5729 5732
5659 5647 5637 5627 5617 5609 5603 5596 5588 5584 5580 5576 5577 5576 5574 5573 5576 5577 5575 5578 5584 5583 5584 5586 5593 5603 5609 5620 5635 5651 5652 5680 5679 5686 5695 5703 5710 5719 5722 5725 5727 5727 5726 5727 5729
5656 5645 5633 5623 5613 5607 5600 5592 5585 5580 5576 5572 5570 5571 5571 5572 5573 5571 5568 5572 5575 5576 5575 5580 5582 5594 5601 5608 5622 5632 5657 5657 5665 5676 5686 5698 5704 5712 5716 5720 5721 5722 5724 5726 5726
5650 5644 5632 5620 5611 5604 5597 5591 5584 5579 5574 5574 5568 5567 5567 5568 5567 5568 5568 5570 5572 5573 5572 5572 5575 5591 5592 5596 5609 5627 5637 5646 5660 5670 5681 5693 5703 5709 5710 5715 5717 5719 5721 5723 5723
5646 5638 5628 5616 5609 5601 5595 5589 5584 5577 5574 5570 5566 5566 5565 5566 5566 5566 5564 5564 5563 5566 5569 5568 5569 5575 5581 5592 5602 5611 5622 5639 5648 5663 5676 5688 5696 5697 5705 5712 5714 5714 5717 5720 5722
5642 5635 5626 5616 5607 5601 5594 5588 5582 5578 5572 5569 5565 5562 5564 5564 5563 5563 5562 5562 5560 5562 5564 5564 5565 5565 5574 5586 5595 5601 5616 5629 5642 5657 5668 5682 5691 5696 5704 5707 5708 5712 5714 5716 5719
5639 5632 5623 5613 5605 5598 5594 5589 5583 5577 5571 5568 5564 5563 5562 5560 5559 5558 5559 5558 5556 5558 5560 5558 5558 5560 5567 5576 5580 5591 5605 5618 5636 5648 5662 5673 5688 5691 5698 5703 5704 5708 5711 5714 5717
5636 5629 5621 5614 5606 5598 5591 5586 5581 5576 5572 5568 5565 5561 5559 5556 5556 5555 5553 5553 5553 5553 5554 5553 5554 5555 5561 5568 5577 5585 5598 5609 5620 5639 5653 5671 5680 5689 5695 5700 5702 5705 5708 5711 5713
5636 5630 5623 5614 5606 5598 5591 5585 5580 5576 5570 5566 5562 5560 5556 5553 5551 5549 5547 5549 5550 5551 5551 5551 5553 5553 5559 5565 5568 5581 5592 5603 5618 5635 5648 5666 5673 5684 5682 5690 5696 5702 5703 5707 5710
5635 5628 5621 5614 5606 5598 5590 5583 5578 5573 5569 5563 5559 5555 5552 5549 5545 5542 5542 5545 5547 5548 5550 5549 5552 5554 5558 5562 5570 5579 5590 5605 5620 5634 5651 5660 5670 5669 5681 5675 5689 5695 5698 5703 5707
Wind_Speed
23 25 27 28 30 31 34 36 37 38 38 41 46 53 64 62 63 61 56 48 53 56 59 57 62 56 54 55 55 58 53 61 50 41 28 34 38 35 24 28 30 30 33 33 32
27 29 31 32 33 34 35 35 37 38 40 42 43 45 52 65 65 67 61 57 56 55 55 55 56 58 62 60 57 56 55 49 40 36 36 32 38 40 32 41 34 27 30 36 35
29 31 33 34 36 37 38 40 41 42 43 43 44 48 50 51 54 61 70 71 68 65 60 60 63 61 64 62 55 55 55 47 41 38 38 37 37 39 44 45 37 34 31 32 31
34 36 38 39 39 40 41 41 42 43 44 45 47 48 50 53 55 55 56 60 64 72 76 76 70 71 73 68 59 60 57 55 48 45 43 42 41 41 46 50 41 39 40 40 37
33 35 37 40 42 43 44 45 46 48 49 49 48 48 50 50 50 57 59 60 58 61 63 65 64 66 72 67 59 62 54 53 50 48 48 48 48 48 47 46 49 43 45 50 53
35 37 38 40 42 43 45 48 49 49 50 51 52 53 52 50 51 53 57 59 61 61 62 62 61 60 64 70 66 58 58 55 54 56 52 53 51 49 46 47 49 48 49 53 54
33 36 39 41 44 46 48 50 51 52 53 55 55 54 53 53 57 55 57 56 55 56 61 61 61 63 61 64 68 69 67 65 60 56 55 52 51 45 47 46 43 44 47 48 42
36 39 42 45 48 50 53 55 57 57 57 58 58 57 55 57 56 58 58 57 57 57 56 57 59 60 61 61 61 64 71 66 50 53 51 54 47 46 44 41 44 40 38 37 37
38 42 44 47 50 53 57 61 63 63 63 63 63 60 57 60 60 58 58 60 61 60 60 61 62 61 60 60 61 60 63 59 47 46 51 58 48 45 41 39 37 35 34 35 29
40 42 46 49 53 57 60 64 65 66 68 67 66 65 65 64 63 64 62 61 61 62 64 63 64 63 60 61 56 52 51 47 45 50 54 52 51 46 40 39 36 36 36 29 35
46 49 51 55 60 64 71 76 78 80 77 71 68 69 68 70 67 65 65 65 65 64 65 69 69 59 48 53 52 53 51 49 47 47 45 44 45 42 34 34 35 34 31 36 38
45 49 52 57 64 75 79 75 72 69 72 56 71 67 66 68 72 68 67 66 67 66 67 67 61 52 56 57 59 57 52 45 46 47 42 37 42 38 37 28 29 35 34 41 39
45 52 56 61 67 68 55 51 47 42 45 32 34 55 50 58 62 64 65 67 65 67 66 66 55 56 62 62 62 55 54 48 47 49 41 43 52 46 32 25 31 33 39 40 29
48 52 54 58 61 53 53 43 36 29 16 8 8 13 19 29 48 49 53 57 61 60 60 64 57 59 59 60 61 57 54 54 53 51 48 45 53 39 28 30 29 35 30 32 26
48 50 54 56 54 45 39 30 23 13 7 6 2 2 4 12 16 28 40 45 51 52 54 53 59 61 60 57 62 54 55 54 54 53 50 49 48 24 30 24 31 23 24 24 28
46 50 52 50 46 38 24 22 20 20 7 7 7 12 9 11 15 20 7 19 27 35 51 53 55 58 58 56 56 56 57 54 51 50 53 39 44 24 22 28 21 21 22 25 25
45 49 49 46 41 35 24 23 28 25 17 16 13 14 7 7 10 12 6 16 14 16 41 49 52 54 54 58 57 56 56 55 56 54 45 35 43 33 19 23 17 19 23 22 20
44 46 45 43 37 35 26 25 23 19 20 17 21 15 18 22 19 12 18 22 13 16 24 34 43 52 53 55 57 57 59 61 58 54 43 39 48 18 19 16 10 18 16 21 14
43 46 45 41 37 35 31 24 24 25 26 27 12 13 16 18 24 17 23 26 31 28 31 33 43 42 53 55 50 51 61 49 55 51 49 43 36 27 22 10 17 14 14 16 14
41 46 44 41 37 33 33 25 25 18 23 16 16 12 16 17 15 10 6 17 24 27 36 31 41 37 48 60 62 56 50 55 55 54 52 43 33 18 12 10 16 9 14 11 15
43 45 47 43 37 33 31 24 23 19 19 19 14 14 14 14 13 14 10 13 16 24 27 32 32 36 45 57 58 58 52 59 55 53 48 40 21 11 14 19 18 18 18 16 15
41 46 49 46 38 31 28 25 24 18 17 16 17 9 16 18 15 12 14 17 20 25 31 27 16 32 42 46 53 64 60 55 59 53 47 33 28 22 31 17 20 21 17 11 12
38 42 46 46 39 32 25 25 26 26 18 15 11 10 8 12 16 17 8 11 16 20 18 16 21 24 40 45 43 58 62 56 58 50 46 38 29 11 11 21 22 21 16 11 12
35 39 43 45 40 35 26 22 24 23 22 16 11 2 14 14 18 17 19 19 10 9 16 17 19 25 31 44 46 53 64 58 58 57 44 46 21 11 18 17 20 21 15 15 12
35 35 41 42 40 34 29 26 24 25 20 18 8 10 14 10 15 25 25 16 14 11 11 19 11 21 32 42 43 50 66 65 65 60 52 44 27 19 15 16 13 19 14 14 18
35 31 33 37 41 36 33 26 23 21 21 16 8 12 14 18 17 17 21 15 14 13 11 14 11 19 32 43 37 53 69 68 66 59 55 43 33 21 23 24 24 17 17 20 20
34 31 33 35 38 39 33 32 29 19 19 21 17 12 14 15 14 13 14 15 12 15 12 12 7 10 25 32 39 47 67 67 62 59 48 43 32 37 33 21 15 14 21 21 18
Wind_Direction
270 269 267 266 265 260 258 260 259 258 254 249 246 242 233 237 240 242 241 240 240 240 242 249 251 250 239 253 254 260 263 254 248 253 271 245 246 221 220 259 228 243 255 254 259
273 271 270 269 269 268 266 261 259 258 257 254 250 247 242 238 239 241 245 242 241 240 242 243 245 250 255 257 256 261 263 263 255 256 262 248 245 230 222 237 240 254 247 256 261
276 275 274 273 271 270 267 264 261 259 260 256 253 249 246 244 244 244 245 246 244 245 244 250 253 252 257 259 252 257 264 275 261 263 262 261 246 240 247 253 248 260 269 264 272
285 284 282 279 276 273 271 269 268 267 262 257 255 253 249 246 244 244 242 244 245 246 248 254 253 255 258 256 254 258 267 270 263 261 259 260 265 256 255 261 250 259 261 264 278
285 284 283 282 280 279 277 275 273 270 266 264 262 257 253 250 247 246 242 242 241 243 244 246 249 251 253 255 252 259 259 258 258 257 262 259 263 262 260 257 260 267 263 268 272
291 289 288 286 284 282 280 277 274 270 266 264 263 261 258 255 250 245 247 243 241 240 241 244 246 249 248 246 251 255 255 256 255 260 259 259 262 255 257 264 267 268 266 266 269
298 297 296 295 293 290 285 281 277 273 269 265 261 259 259 257 253 248 248 247 244 242 240 242 244 246 246 246 249 252 255 256 257 259 260 259 265 269 275 270 272 268 268 268 271
307 304 301 298 295 291 286 282 280 277 273 269 266 261 256 258 255 254 250 247 246 244 243 241 241 244 246 249 248 249 250 255 257 261 265 262 270 268 268 275 271 274 274 278 281
306 303 301 299 296 292 288 284 280 275 271 270 267 264 259 256 254 253 253 249 245 244 243 242 243 243 244 246 247 245 250 256 262 262 264 262 264 266 272 275 270 274 278 280 296
312 307 304 302 298 294 288 285 280 275 271 266 262 263 258 255 251 250 250 250 249 245 242 242 241 241 241 244 247 253 257 260 260 262 262 270 269 269 270 267 275 276 280 297 286
315 311 307 304 303 302 298 292 285 278 272 266 261 256 254 253 252 249 247 246 246 246 244 241 240 240 247 248 250 253 252 253 255 262 264 260 267 270 264 268 275 280 290 283 285
317 317 314 311 312 311 305 297 292 283 265 268 261 255 249 249 248 247 244 244 243 243 243 242 244 244 241 240 241 243 247 250 256 260 262 258 262 264 259 262 273 277 278 282 287
323 326 328 331 332 327 319 314 305 296 288 289 274 259 252 245 244 243 244 239 238 239 240 241 241 239 238 237 239 240 243 248 253 257 257 259 262 266 269 268 267 275 277 287 298
334 335 338 340 340 334 330 325 319 305 310 284 289 274 241 239 242 242 241 243 240 238 238 238 237 238 237 237 236 238 239 242 247 251 253 256 264 257 262 262 273 269 282 287 293
341 341 340 344 345 342 337 332 349 354 156 68 233 183 320 240 207 229 238 239 242 240 237 237 236 234 235 234 232 234 233 236 242 245 250 249 255 256 259 264 262 288 288 284 277
343 344 344 345 347 351 346 345 4 9 46 310 277 256 284 225 218 228 232 252 247 243 236 229 231 230 232 230 232 229 228 230 236 240 243 241 252 253 260 267 277 285 280 274 291
345 345 346 344 348 346 351 326 325 351 349 1 359 344 320 173 169 188 235 213 240 258 231 229 224 227 228 227 228 224 223 225 227 230 238 238 252 258 267 277 284 272 267 290 298
347 347 348 344 342 347 348 350 338 335 332 328 320 321 321 296 287 263 255 251 238 266 234 234 229 221 223 223 228 221 218 223 227 233 236 236 242 254 263 293 279 253 276 282 296
350 348 349 346 345 348 346 347 341 320 330 318 278 289 290 278 255 254 248 248 227 233 246 240 228 219 217 214 216 222 217 226 225 226 228 231 239 247 241 252 233 254 298 281 284
351 351 352 350 350 347 347 352 345 315 342 318 314 267 239 281 261 260 249 213 219 228 239 251 237 207 208 217 215 212 211 206 216 218 225 224 237 248 263 267 250 270 284 267 285
347 351 352 356 354 350 348 352 352 347 349 333 326 304 268 268 274 264 287 255 236 237 240 251 255 203 205 212 208 205 206 209 211 219 220 221 208 192 233 252 263 274 283 246 276
340 349 353 357 355 354 353 350 352 335 335 328 322 302 265 251 251 252 257 247 278 242 242 255 244 209 214 205 206 204 196 206 208 212 212 208 180 173 221 228 254 277 279 253 252
341 346 352 357 356 359 355 354 351 356 347 344 325 272 271 260 273 265 319 325 285 289 276 243 250 234 204 198 204 204 193 202 201 197 203 195 177 212 200 227 248 257 271 260 244
343 345 355 357 354 356 352 358 2 355 359 353 346 329 321 255 260 262 264 282 287 275 266 262 255 240 204 196 198 200 188 190 192 196 191 194 165 177 232 235 239 251 259 222 241
345 348 351 356 357 354 354 349 355 355 348 344 329 326 322 310 260 262 272 260 247 239 273 271 238 237 198 189 200 192 185 187 195 193 197 184 188 188 226 225 239 251 244 221 243
347 347 351 355 357 357 356 353 343 352 344 342 341 320 311 302 294 271 265 245 233 241 252 239 236 234 220 191 190 196 184 189 195 197 197 166 180 208 190 224 219 236 220 231 234
351 350 350 356 357 359 357 358 355 344 346 346 336 335 321 314 333 310 254 212 217 224 257 245 246 260 229 218 195 194 185 190 193 191 173 174 183 205 200 190 199 204 212 221 230